This is the latest recevied weather packets stored in our database for station/object W5HKR. If no packets are shown the sender has not sent any weather packets the latest 10 day(s).
| Time | Temp. | Humidity | Pressure | Rain* | Wind** | Luminosity | Snow |
|---|---|---|---|---|---|---|---|
| 1777626501 | 16.67° C | 97% | 982.3 hPa | 2.54 mm | - | - | - |
| 1777626201 | 16.67° C | 97% | 982.1 hPa | 4.83 mm | - | - | - |
| 1777625902 | 16.67° C | 97% | 982.3 hPa | 6.6 mm | - | - | - |
| 1777625602 | 16.67° C | 97% | 982.5 hPa | 7.11 mm | - | - | - |
| 1777625303 | 16.67° C | 97% | 982.4 hPa | 7.62 mm | - | - | - |
| 1777625003 | 16.67° C | 97% | 981.8 hPa | 7.87 mm | - | - | - |
| 1777624832 | 16.67° C | 97% | 982.4 hPa | 7.87 mm | - | - | - |
| 1777624403 | 18.33° C | 91% | 990.6 hPa | 7.87 mm | - | - | - |
| 1777624101 | 18.33° C | 91% | 990.6 hPa | 7.62 mm | - | - | - |
| 1777623802 | 18.33° C | 91% | 990.6 hPa | 7.37 mm | - | - | - |
| 1777623753 | 16.67° C | 97% | 982.7 hPa | 7.37 mm | - | - | - |
| 1777623501 | 18.33° C | 91% | 990.6 hPa | 7.11 mm | - | - | - |
| 1777623202 | 17.22° C | 97% | 982.8 hPa | 7.11 mm | - | - | - |
| 1777622900 | 18.33° C | 91% | 990.6 hPa | 7.37 mm | - | - | - |
| 1777622673 | 18.33° C | 91% | 990.6 hPa | 6.86 mm | - | - | - |
| 1777622601 | 18.33° C | 91% | 990.6 hPa | 6.6 mm | - | - | - |
| 1777622301 | 17.22° C | 97% | 985.7 hPa | 6.35 mm | - | - | - |
| 1777622002 | 17.22° C | 97% | 984.9 hPa | 6.86 mm | - | - | - |
| 1777621701 | 17.22° C | 97% | 983 hPa | 6.1 mm | - | - | - |
| 1777621594 | 17.22° C | 97% | 982.8 hPa | 5.84 mm | - | - | - |
| 1777621401 | 18.33° C | 91% | 990.6 hPa | 5.59 mm | - | - | - |
| 1777621102 | 17.22° C | 97% | 983.3 hPa | 5.33 mm | - | - | - |
| 1777620802 | 18.33° C | 91% | 990.6 hPa | 4.83 mm | - | - | - |
| 1777620501 | 17.22° C | 97% | 983.7 hPa | 4.83 mm | - | - | - |
| 1777620202 | 18.33° C | 91% | 990.6 hPa | 4.83 mm | - | - | - |
* Rain latest hour (hover to see other rain measurements)
** Current wind speed in m/s (hover to see current wind gust speed)